(341787) = 2004 DW9 = 2007 WY47

Discovered at Mount Lemmon on 2007-11-20 by Mt. Lemmon Survey.

Orbit

Orbit type: Main Belt

Note: WebGL enabled browser required.

epoch2024-03-31.0
epoch JD2460400.5
perihelion date2022-06-22.31731
perihelion JD2459752.81731
argument of perihelion (°)277.19445
ascending node (°)29.55689
inclination (°)10.34657
eccentricity0.0841108
perihelion distance (AU)2.8115919
Tisserand w.r.t. Jupiter3.2
ΔV w.r.t. Earth (km/sec)10.9
semimajor axis (AU)3.0697947
mean anomaly (°)118.68672
mean daily motion (°/day)0.18324830
aphelion distance (AU)3.328
period (years)5.38
P-vector [x]0.59038541
P-vector [y]-0.65136883
P-vector [z]-0.47661695
Q-vector [x]0.80224430
Q-vector [y]0.53839697
Q-vector [z]0.25793948
absolute magnitude15.97
phase slope0.15
uncertainty0
referenceMPEC 2024-C163
observations used282
oppositions13
arc length (days)7241
first opposition used2004
last opposition used2023
residual rms (arc-secs)0.76
perturbers coarse indicatorM-v
perturbers precise indicator003Ek
first observation date used2004-02-17.0
last observation date used2023-12-15.0
computer nameMPCLINUX
JD of orbit computation2456670.917382
perihelion JD uncertainty (days)4.1328E-04
argument of perihelion uncertainty (°)7.9145E-05
ascending node uncertainty (°)2.8536E-05
inclination uncertainty (°)8.3742E-06
eccentricity uncertainty 5.0243E-08
perihelion distance uncertainty (AU)1.4708E-07
Minimum Orbit Intersection Distances (in AU)
for orbit epoch: 2460200.5, reference: E2024-CG3
Mercury2.37801
Venus2.09861
Earth1.82821
Mars1.43145
Jupiter1.91098
Saturn5.84859
Uranus15.1973
Neptune26.765

Observations

285 total observations over interval: 2004 02 17.42279 – 2023 12 15.262866
These data are available for download (format description).

Date (UT) J2000 RA J2000 Dec Magn Location Ref
2004 02 17.42279 10 52 57.16 +20 26 14.1 21.1 V 691 – Steward Observatory, Kitt Peak-Spacewatch MPS 100240
2004 02 17.45082 10 52 55.80 +20 26 20.9 21.9 V 691 – Steward Observatory, Kitt Peak-Spacewatch MPS 100240
2004 02 17.47781 10 52 54.46 +20 26 27.5 21.5 V 691 – Steward Observatory, Kitt Peak-Spacewatch MPS 100240
2004 02 18.23898 10 52 17.97 +20 29 35.7 20.9 V 291 – LPL/Spacewatch II MPS 100240
2004 02 18.24681 10 52 17.59 +20 29 37.7 21.3 V 291 – LPL/Spacewatch II MPS 100240
2004 02 18.25477 10 52 17.20 +20 29 39.6 21.3 V 291 – LPL/Spacewatch II MPS 100240
2007 10 21.40978 04 02 19.17 +26 23 19.3 20.0 V G96 – Mt. Lemmon Survey MPS 239561
2007 10 21.41447 04 02 18.99 +26 23 19.8 20.1 V G96 – Mt. Lemmon Survey MPS 239561
2007 10 21.41918 04 02 18.81 +26 23 20.6 20.8 V G96 – Mt. Lemmon Survey MPS 239561
2007 11 02.29752 03 53 48.27 +26 41 27.3 20.5 V 691 – Steward Observatory, Kitt Peak-Spacewatch MPS 239561
2007 11 02.31518 03 53 47.36 +26 41 28.2 20.3 V 691 – Steward Observatory, Kitt Peak-Spacewatch MPS 239561
2007 11 02.33285 03 53 46.47 +26 41 29.1 20.7 V 691 – Steward Observatory, Kitt Peak-Spacewatch MPS 239561
2007 11 20.29523 03 37 16.17 +26 43 46.2 20.1 V G96 – Mt. Lemmon Survey MPS 229310
2007 11 20.29961 03 37 15.92 +26 43 46.0 20.1 V G96 – Mt. Lemmon Survey MPS 229310
2007 11 20.30397 03 37 15.63 +26 43 45.8 20.0 V G96 – Mt. Lemmon Survey MPS 229310
2007 11 20.30832 03 37 15.38 +26 43 45.7 20.0 V G96 – Mt. Lemmon Survey MPS 229310
2007 11 20.35750 03 37 12.50 +26 43 43.5 20.1 V G96 – Mt. Lemmon Survey MPS 229310
2007 11 20.36113 03 37 12.28 +26 43 43.0 20.2 V G96 – Mt. Lemmon Survey MPS 229310
2007 11 20.36474 03 37 12.07 +26 43 43.1 20.4 V G96 – Mt. Lemmon Survey MPS 229310
2007 11 20.36832 03 37 11.85 +26 43 42.8 20.1 V G96 – Mt. Lemmon Survey MPS 229310
2007 11 21.41845 03 36 11.37 +26 42 56.4 20.1 V G96 – Mt. Lemmon Survey MPS 229310
2007 11 21.42211 03 36 11.19 +26 42 56.7 20.1 V G96 – Mt. Lemmon Survey MPS 229310
2007 11 21.42594 03 36 10.94 +26 42 56.3 19.9 V G96 – Mt. Lemmon Survey MPS 229310
2007 11 21.42966 03 36 10.69 +26 42 56.2 20.4 V G96 – Mt. Lemmon Survey MPS 229310
2007 12 17.36499 03 14 49.63 +26 05 53.8 20.2 V G96 – Mt. Lemmon Survey MPS 239561
2007 12 17.36993 03 14 49.45 +26 05 53.4 20.4 V G96 – Mt. Lemmon Survey MPS 239561
2007 12 17.37493 03 14 49.27 +26 05 52.3 20.5 V G96 – Mt. Lemmon Survey MPS 239561
2007 12 17.37990 03 14 49.05 +26 05 52.0 20.9 V G96 – Mt. Lemmon Survey MPS 239561
2010 01 17.34348 13 39 56.30 -05 42 25.6   C51 – WISE MPS 333648
2010 01 17.475780 13 40 01.19 -05 42 58.6   C51 – WISE MPS 333648
2010 01 17.541995 13 40 03.61 -05 43 13.4   C51 – WISE MPS 333648
2010 01 17.608084 13 40 06.084 -05 43 32.77   C51 – WISE MPS 879330
2010 01 17.67430 13 40 08.40 -05 43 48.9   C51 – WISE MPS 333648
2010 01 17.740516 13 40 10.75 -05 44 03.7   C51 – WISE MPS 333648
2010 01 17.806605 13 40 13.11 -05 44 18.6   C51 – WISE MPS 333648
2010 01 17.939037 13 40 17.98 -05 44 52.4   C51 – WISE MPS 333648
2010 01 18.071343 13 40 22.718 -05 45 28.26   C51 – WISE MPS 879330
2010 03 15.39591 13 43 53.43 -07 10 37.8 21.3 V G96 – Mt. Lemmon Survey MPS 320699
2010 03 15.40579 13 43 53.18 -07 10 37.2 20.8 V G96 – Mt. Lemmon Survey MPS 320699
2010 03 15.41575 13 43 52.82 -07 10 36.4 20.8 V G96 – Mt. Lemmon Survey MPS 320699
2010 03 15.42572 13 43 52.50 -07 10 36.4 20.6 V G96 – Mt. Lemmon Survey MPS 320699
2010 03 25.31360 13 37 43.23 -06 57 14.4 20.9 V 691 – Steward Observatory, Kitt Peak-Spacewatch MPS 320699
2010 03 25.33132 13 37 42.45 -06 57 12.2 20.6 V 691 – Steward Observatory, Kitt Peak-Spacewatch MPS 320699
2010 03 25.34903 13 37 41.69 -06 57 11.0 20.7 V 691 – Steward Observatory, Kitt Peak-Spacewatch MPS 320699
2010 04 10.30138 13 25 05.12 -06 26 34.5 20.0 V 703 – Catalina Sky Survey MPS 322283
2010 04 10.30770 13 25 04.69 -06 26 34.7 19.3 V 703 – Catalina Sky Survey MPS 322283
2010 04 10.31404 13 25 04.33 -06 26 33.4 20.0 V 703 – Catalina Sky Survey MPS 322283
2010 04 10.32038 13 25 04.08 -06 26 33.1 19.9 V 703 – Catalina Sky Survey MPS 322283
2010 04 14.30547 13 21 41.14 -06 18 24.4 19.7 V G96 – Mt. Lemmon Survey MPS 322283
2010 04 14.31199 13 21 40.75 -06 18 24.4 20.3 V G96 – Mt. Lemmon Survey MPS 322283
2010 04 14.31853 13 21 40.42 -06 18 23.9 20.1 V G96 – Mt. Lemmon Survey MPS 322283
2010 04 14.32513 13 21 40.06 -06 18 22.8 20.1 V G96 – Mt. Lemmon Survey MPS 322283
2010 04 18.370931 13 18 14.939 -06 10 27.25 20.97 g F51 – Pan-STARRS 1, Haleakala MPS 337407
2010 04 18.379400 13 18 14.495 -06 10 26.58 20.82 g F51 – Pan-STARRS 1, Haleakala MPS 337407
2010 05 05.22588 13 05 20.11 -05 46 14.4 20.3 V G96 – Mt. Lemmon Survey MPS 324926
2010 05 05.23124 13 05 19.86 -05 46 14.1 20.7 V G96 – Mt. Lemmon Survey MPS 324926
2010 05 05.23664 13 05 19.68 -05 46 13.9 20.5 V G96 – Mt. Lemmon Survey MPS 324926
2010 05 05.24206 13 05 19.39 -05 46 14.0 20.7 V G96 – Mt. Lemmon Survey MPS 324926
2010 05 05.27996 13 05 17.86 -05 46 11.5 20.7 V 291 – LPL/Spacewatch II MPS 324926
2010 05 05.28714 13 05 17.58 -05 46 11.2 20.7 V 291 – LPL/Spacewatch II MPS 324926
2010 05 05.29438 13 05 17.29 -05 46 11.0 20.7 V 291 – LPL/Spacewatch II MPS 324926
2010 05 21.15295 12 57 05.90 -05 45 10.3 20.5 V G96 – Mt. Lemmon Survey MPS 327422
2010 05 21.16064 12 57 05.65 -05 45 10.2 20.7 V G96 – Mt. Lemmon Survey MPS 327422
2010 05 21.16840 12 57 05.58 -05 45 10.8 21.2 V G96 – Mt. Lemmon Survey MPS 327422
2010 05 21.17617 12 57 05.36 -05 45 11.0 20.8 V G96 – Mt. Lemmon Survey MPS 327422
2010 07 04.020623 13 01 28.94 -08 00 41.6   C51 – WISE MPS 344959
2010 07 04.152926 13 01 33.09 -08 01 22.6   C51 – WISE MPS 344959
2010 07 04.285229 13 01 37.236 -08 02 03.30   C51 – WISE MPS 904118
2010 07 04.417406 13 01 41.35 -08 02 44.0   C51 – WISE MPS 344959
2010 07 04.417534 13 01 41.46 -08 02 44.8   C51 – WISE MPS 344959
2010 07 04.483622 13 01 43.42 -08 03 05.3   C51 – WISE MPS 344959
2010 07 04.549709 13 01 45.51 -08 03 25.3   C51 – WISE MPS 344959
2010 07 04.748229 13 01 52.037 -08 04 27.19   C51 – WISE MPS 904118
2010 07 05.145013 13 02 04.62 -08 06 32.1   C51 – WISE MPS 344959
2010 07 05.145140 13 02 04.752 -08 06 30.10   C51 – WISE MPS 904118
2012 09 23.36609 02 09 56.26 +11 18 48.2 20.1 V G96 – Mt. Lemmon Survey MPS 433362
2012 09 23.37067 02 09 56.12 +11 18 48.5 20.4 V G96 – Mt. Lemmon Survey MPS 433362
2012 09 23.37523 02 09 55.94 +11 18 48.0 20.2 V G96 – Mt. Lemmon Survey MPS 433362
2012 09 23.37984 02 09 55.76 +11 18 48.3 20.3 V G96 – Mt. Lemmon Survey MPS 433362
2012 10 22.15000 01 47 35.90 +10 44 57.9 20.1 V 691 – Steward Observatory, Kitt Peak-Spacewatch MPS 437925
2012 10 22.16769 01 47 34.96 +10 44 56.2 20.0 V 691 – Steward Observatory, Kitt Peak-Spacewatch MPS 437925
2012 10 22.18537 01 47 33.99 +10 44 54.9 20.0 V 691 – Steward Observatory, Kitt Peak-Spacewatch MPS 437925
2012 10 22.27529 01 47 29.14 +10 44 44.9 19.7 V G96 – Mt. Lemmon Survey MPS 437925
2012 10 22.28039 01 47 28.89 +10 44 44.7 19.6 V G96 – Mt. Lemmon Survey MPS 437925
2012 10 22.28553 01 47 28.60 +10 44 43.8 19.6 V G96 – Mt. Lemmon Survey MPS 437925
2012 10 22.29072 01 47 28.28 +10 44 43.5 19.8 V G96 – Mt. Lemmon Survey MPS 437925
2012 11 02.19382 01 38 09.56 +10 26 49.6 19.8 V G96 – Mt. Lemmon Survey MPS 441640
2012 11 02.20013 01 38 09.24 +10 26 49.6 20.7 V G96 – Mt. Lemmon Survey MPS 441640
2012 11 02.20652 01 38 08.88 +10 26 49.2 20.4 V G96 – Mt. Lemmon Survey MPS 441640
2012 11 02.21295 01 38 08.59 +10 26 48.9 20.0 V G96 – Mt. Lemmon Survey MPS 441640
2012 11 02.320143 01 38 03.405 +10 26 39.63 20.0 i F51 – Pan-STARRS 1, Haleakala MPS 441640
2012 11 02.332314 01 38 02.796 +10 26 38.70 20.1 i F51 – Pan-STARRS 1, Haleakala MPS 441640
2012 11 07.16902 01 34 15.67 +10 19 50.9 20.1 V G96 – Mt. Lemmon Survey MPS 441640
2012 11 07.17447 01 34 15.42 +10 19 50.5 20.4 V G96 – Mt. Lemmon Survey MPS 441640
2012 11 07.17998 01 34 15.16 +10 19 50.1 20.5 V G96 – Mt. Lemmon Survey MPS 441640
2012 11 07.18548 01 34 14.91 +10 19 49.8 20.5 V G96 – Mt. Lemmon Survey MPS 441640
2012 11 07.274729 01 34 10.964 +10 19 43.47 20.5 w F51 – Pan-STARRS 1, Haleakala MPS 441640
2012 11 07.288758 01 34 10.305 +10 19 42.37 20.2 w F51 – Pan-STARRS 1, Haleakala MPS 441640
